Regional Weather Roundup
Issued by NWS

Home | Current Version | Previous Version | Text Only | Print | Product List | Glossary Off
Versions: 1 2 3 4 5 6 7 8 9 10 11 12 13 14 15 16 17 18 19 20 21 22 23 24 25 26 27 28 29 30 31 32 33 34 35 36 37 38 39 40 41 42 43 44 45 46 47 48 49 50

000
ASUS43 KBIS 230110
RWRND
NORTH DAKOTA REGIONAL WEATHER ROUNDUP
NATIONAL WEATHER SERVICE EASTERN NORTH DAKOTA/GRAND FORKS ND
800 PM CDT THU JUN 22 2017

  NOTE: "FAIR" INDICATES FEW OR NO CLOUDS BELOW 12,000 FEET WITH NO
  SIGNIFICANT WEATHER AND/OR OBSTRUCTIONS TO VISIBILITY.

NDZ001>003-009>011-017-230200-
...NORTHWEST NORTH DAKOTA...

CITY           SKY/WX    TMP DP  RH WIND       PRES   REMARKS
WILLISTON      CLOUDY    63  48  58 NW20G31   29.91R
MINOT          PTSUNNY   63  45  51 W25G38    29.78R
MINOT AFB      PTSUNNY   61  46  59 NW28G37   29.77R
$$

NDZ018>021-031>035-040>046-230200-
...SOUTHWEST NORTH DAKOTA...

CITY           SKY/WX    TMP DP  RH WIND       PRES   REMARKS
BISMARCK       FAIR      74  31  20 NW22G32   29.81S
DICKINSON      FAIR      65  30  27 NW33G43   29.89R
GARRISON         N/A     63  41  44 NW30G44   29.81R
HETTINGER      FAIR      70  28  21 NW24G37   29.92R
$$

NDZ004>008-012>016-024-026-027-054-230200-
...NORTHEAST NORTH DAKOTA...

CITY           SKY/WX    TMP DP  RH WIND       PRES   REMARKS
GRAND FORKS    FAIR      72  40  31 W17G25    29.66S
GRAND FORKS AF FAIR      70  40  34 NW15G26   29.68R
DEVILS LAKE    FAIR      64  44  48 W23       29.72R
$$

NDZ022-023-025-028>030-036>039-047>053-230200-
...SOUTHEAST NORTH DAKOTA...

CITY           SKY/WX    TMP DP  RH WIND       PRES   REMARKS
JAMESTOWN      FAIR      71  37  28 NW18G28   29.75S
FARGO          FAIR      73  35  25 W15       29.72S
WAHPETON       FAIR      72  32  23 NW16      29.75S
$$




USA.gov is the U.S. government's official web portal to all federal, state and local government web resources and services.